Date String (YYYY-MM-DD hh:mm:ss) UTC,Instrument flags,Ambient pressure (hPa),Sample flow (lpm),Bypass flow (lpm),Sample temperature (°C),Ambient temperature (°C),ASC tube jacket temperature (°C),LED temperature (°C),Box temperature (°C),Sample RH (%),Span deviation,Mass concentration (μg/m³),Mass concentration (μg/m³),Mass concentration (μg/m³)
DateTimeUTC,F1_M11,P_M11,Q1_M11,Q2_M11,T1_M11,T2_M11,T3_M11,T4_M11,T5_M11,U1_M11,ZSPAN_M11,X0_M11,X2_M11,X1_M11
2021-09-25 00:00:00,,0831.3,4.99,0.00,29.9,29.1,00.0,38.8,31.8,16.7,0000.0,0027.71,0006.86,0004.76
2021-09-25 00:01:00,,0831.2,5.00,0.00,29.9,27.4,00.0,38.8,31.4,16.8,0000.0,0026.00,0006.87,0004.74
2021-09-25 00:02:00,,0831.2,5.00,0.00,29.7,25.7,00.0,38.7,30.9,16.9,0000.0,0027.48,0006.92,0004.75
2021-09-25 00:03:00,,0831.2,4.99,0.00,29.6,25.8,00.0,38.7,30.8,17.1,0000.0,0027.72,0006.97,0004.74
2021-09-25 00:04:00,,0831.2,5.01,0.00,29.5,26.2,00.0,38.7,31.0,17.2,0000.0,0028.04,0006.94,0004.72
2021-09-25 00:05:00,,0831.2,5.00,0.00,29.5,26.7,00.0,38.6,31.1,17.2,0000.0,0028.54,0006.90,0004.73
2021-09-25 00:06:00,,0831.2,4.98,0.00,29.5,27.2,00.0,38.6,31.2,17.2,0000.0,0030.26,0006.98,0004.73
2021-09-25 00:07:00,,0831.2,5.01,0.00,29.5,27.6,00.0,38.6,31.3,17.1,0000.0,0030.36,0007.01,0004.72
2021-09-25 00:08:00,,0831.2,4.99,0.00,29.5,27.9,00.0,38.6,31.4,17.0,0000.0,0029.03,0006.98,0004.72
2021-09-25 00:09:00,,0831.2,4.99,0.00,29.6,28.2,00.0,38.6,31.4,17.0,0000.0,0030.38,0006.94,0004.70
2021-09-25 00:10:00,,0831.2,5.02,0.00,29.6,28.4,00.0,38.6,31.5,16.9,0000.0,0028.55,0006.85,0004.68
2021-09-25 00:11:00,,0831.2,4.99,0.00,29.7,28.6,00.0,38.7,31.6,16.9,0000.0,0028.70,0006.74,0004.66
2021-09-25 00:12:00,,0831.2,5.01,0.00,29.7,28.7,00.0,38.7,31.6,16.9,0000.0,0030.31,0006.70,0004.66
2021-09-25 00:13:00,,0831.2,5.00,0.00,29.8,28.9,00.0,38.7,31.7,16.8,0000.0,0030.01,0006.67,0004.63
2021-09-25 00:14:00,,0831.3,4.99,0.00,29.8,29.0,00.0,38.7,31.8,16.7,0000.0,0030.47,0006.64,0004.61
2021-09-25 00:15:00,,0831.3,5.02,0.00,29.9,29.1,00.0,38.7,31.8,16.7,0000.0,0031.77,0006.63,0004.60
2021-09-25 00:16:00,,0831.3,5.00,0.00,29.9,29.2,00.0,38.8,31.9,16.6,0001.5,0031.33,0006.64,0004.58
2021-09-25 00:17:00,,0831.4,5.00,0.00,30.0,28.6,00.0,38.8,31.7,16.6,0000.9,0029.32,0006.62,0004.57
2021-09-25 00:18:00,,0831.3,4.98,0.00,29.8,26.4,00.0,38.8,31.0,16.8,0002.0,0028.55,0006.56,0004.56
2021-09-25 00:19:00,,0831.3,5.00,0.00,29.6,25.7,00.0,38.8,30.8,16.9,0002.2,0029.34,0006.56,0004.54
2021-09-25 00:20:00,,0831.2,5.00,0.00,29.5,26.0,00.0,38.7,30.9,17.0,0001.9,0026.83,0006.63,0004.54
2021-09-25 00:21:00,,0831.2,5.00,0.00,29.5,26.5,00.0,38.7,31.0,17.2,0001.4,0026.93,0006.70,0004.53
2021-09-25 00:22:00,,0831.2,5.00,0.00,29.4,27.0,00.0,38.6,31.1,17.2,0000.9,0028.55,0006.77,0004.53
2021-09-25 00:23:00,,0831.2,5.01,0.00,29.5,27.5,00.0,38.6,31.2,17.1,0000.5,0029.46,0006.76,0004.53
2021-09-25 00:24:00,,0831.4,4.99,0.00,29.5,27.8,00.0,38.6,31.3,17.1,0001.0,0028.71,0006.74,0004.52
2021-09-25 00:25:00,,0831.2,5.00,0.00,29.6,28.1,00.0,38.6,31.4,17.1,0000.0,0029.97,0006.71,0004.51
2021-09-25 00:26:00,,0831.2,5.01,0.00,29.6,28.3,00.0,38.6,31.5,17.0,0000.0,0030.45,0006.69,0004.50
2021-09-25 00:27:00,,0831.2,5.00,0.00,29.7,28.5,00.0,38.6,31.5,17.0,0000.0,0031.40,0006.73,0004.49
2021-09-25 00:28:00,,0831.2,5.00,0.00,29.7,28.7,00.0,38.7,31.6,16.9,0000.0,0033.01,0006.80,0004.49
2021-09-25 00:29:00,,0831.2,5.00,0.00,29.8,28.9,00.0,38.7,31.7,16.9,0000.0,0034.27,0006.89,0004.49
2021-09-25 00:30:00,,0831.2,5.01,0.00,29.8,29.0,00.0,38.7,31.7,16.8,0000.0,0035.04,0006.96,0004.49
2021-09-25 00:31:00,,0831.2,5.00,0.00,29.9,29.1,00.0,38.8,31.8,16.8,0000.0,0036.25,0006.93,0004.49
2021-09-25 00:32:00,,0831.3,5.01,0.00,29.9,29.2,00.0,38.8,31.9,16.7,0000.0,0036.48,0006.91,0004.49
2021-09-25 00:33:00,,0831.3,5.00,0.00,30.0,29.2,00.0,38.8,31.9,16.6,0000.0,0035.91,0006.88,0004.50
2021-09-25 00:34:00,,0831.3,5.01,0.00,29.9,27.6,00.0,38.8,31.4,16.7,0000.0,0034.01,0006.97,0004.48
2021-09-25 00:35:00,,0831.4,5.00,0.00,29.7,25.9,00.0,38.8,31.0,16.8,0000.0,0032.99,0006.95,0004.48
2021-09-25 00:36:00,,0831.3,5.00,0.00,29.6,25.8,00.0,38.7,30.9,16.9,0000.0,0030.61,0006.91,0004.49
2021-09-25 00:37:00,,0831.3,5.01,0.00,29.5,26.2,00.0,38.7,30.9,17.0,0000.0,0029.02,0006.89,0004.49
2021-09-25 00:38:00,,0831.3,5.00,0.00,29.5,26.7,00.0,38.7,31.1,17.1,0000.0,0028.07,0006.89,0004.49
2021-09-25 00:39:00,,0831.3,5.01,0.00,29.5,27.2,00.0,38.6,31.2,17.1,0000.0,0026.18,0006.76,0004.48
2021-09-25 00:40:00,,0831.3,4.99,0.00,29.5,27.6,00.0,38.6,31.3,17.1,0000.0,0025.46,0006.72,0004.48
2021-09-25 00:41:00,,0831.3,5.01,0.00,29.5,27.9,00.0,38.6,31.4,17.1,0000.0,0025.09,0006.65,0004.47
2021-09-25 00:42:00,,0831.3,4.99,0.00,29.6,28.2,00.0,38.6,31.4,17.0,0000.0,0024.62,0006.63,0004.46
2021-09-25 00:43:00,,0831.3,5.00,0.00,29.6,28.4,00.0,38.6,31.5,17.0,0000.0,0023.90,0006.64,0004.46
2021-09-25 00:44:00,,0831.3,5.00,0.00,29.7,28.6,00.0,38.6,31.5,16.9,0000.0,0023.12,0006.68,0004.47
2021-09-25 00:45:00,,0831.3,4.98,0.00,29.7,28.8,00.0,38.7,31.6,16.9,0000.0,0023.09,0006.59,0004.47
2021-09-25 00:46:00,,0831.3,5.00,0.00,29.8,28.9,00.0,38.7,31.7,16.9,0000.0,0022.85,0006.56,0004.48
2021-09-25 00:47:00,,0831.4,5.01,0.00,29.8,29.1,00.0,38.7,31.7,16.8,0000.0,0024.30,0006.61,0004.48
2021-09-25 00:48:00,,0831.3,4.99,0.00,29.9,29.2,00.0,38.7,31.8,16.8,0000.0,0023.77,0006.64,0004.48
2021-09-25 00:49:00,,0831.3,5.01,0.00,29.9,29.3,00.0,38.8,31.8,16.7,0000.0,0023.24,0006.62,0004.48
2021-09-25 00:50:00,,0831.3,5.01,0.00,29.9,28.7,00.0,38.8,31.7,16.7,0000.4,0023.05,0006.68,0004.49
2021-09-25 00:51:00,,0831.2,4.98,0.00,29.8,26.5,00.0,38.8,31.1,16.8,0000.7,0022.98,0006.68,0004.50
2021-09-25 00:52:00,,0831.3,5.01,0.00,29.6,25.5,00.0,38.7,30.8,16.9,0002.0,0022.70,0006.67,0004.52
2021-09-25 00:53:00,,0831.2,5.00,0.00,29.5,25.8,00.0,38.7,30.8,17.1,0001.3,0021.66,0006.68,0004.53
2021-09-25 00:54:00,,0831.1,5.00,0.00,29.4,26.3,00.0,38.7,30.9,17.1,0000.2,0021.60,0006.73,0004.54
2021-09-25 00:55:00,,0831.2,5.00,0.00,29.4,26.8,00.0,38.6,31.0,17.1,0000.0,0021.86,0006.78,0004.55
2021-09-25 00:56:00,,0831.2,4.99,0.00,29.4,27.3,00.0,38.6,31.1,17.1,0000.0,0021.96,0006.80,0004.55
2021-09-25 00:57:00,,0831.2,5.01,0.00,29.5,27.6,00.0,38.6,31.2,17.0,0000.2,0022.39,0006.86,0004.55
2021-09-25 00:58:00,,0831.2,5.00,0.00,29.5,27.9,00.0,38.6,31.3,17.0,0001.1,0021.84,0006.87,0004.55
2021-09-25 00:59:00,,0831.2,4.99,0.00,29.5,28.2,00.0,38.6,31.4,17.0,0000.0,0022.81,0006.90,0004.55
